Regional Weather Roundup
Issued by NWS

Home | Current Version | Previous Version | Graphics & Text | Print | Product List | Glossary On
Versions: 1 2 3 4 5 6 7 8 9 10 11 12 13 14 15 16 17 18 19 20 21 22 23 24 25 26 27 28 29 30 31 32 33 34 35 36 37 38 39 40 41 42 43 44 45 46 47 48 49 50
000
ASUS43 KOAX 260410
RWRNE

WEATHER ROUNDUP FOR NEBRASKA
NATIONAL WEATHER SERVICE OMAHA NE
1100 PM CDT THU AUG 25 2016

NOTES: SATELLITE DATA IS BEING USED TO AUGMENT CLOUD COVER ABOVE
       12000 FEET.
       "FAIR" INDICATES FEW OR NO CLOUDS BELOW 12,000 FEET WITH NO
       SIGNIFICANT WEATHER AND/OR OBSTRUCTIONS TO VISIBILITY.

  * THESE STATIONS DO NOT REPORT WEATHER SUCH AS RAIN...SNOW OR FOG.

NEZ001>004-019>022-054>056-260500-
NEBRASKA PANHANDLE

CITY           SKY/WX    TMP DP  RH WIND       PRES   REMARKS
SCOTTSBLUFF    CLOUDY    60  46  59 E9        30.19R
ALLIANCE       CLEAR     56  47  71 E8        30.20S
CHADRON        CLEAR     55  48  77 CALM      30.19F
KIMBALL        CLOUDY    56  46  69 SE8       30.22S
SIDNEY         PTCLDY    62  47  57 SE14      30.22S
$$

NEZ057>060-069>072-079>082-260500-
SOUTHWEST NEBRASKA

CITY           SKY/WX    TMP DP  RH WIND       PRES   REMARKS
NORTH PLATTE   CLEAR     56  52  86 E5        30.21R
IMPERIAL       PTCLDY    58  49  72 SE8       30.21R
LEXINGTON      PTCLDY    62  55  77 E6        30.20R
MCCOOK         CLOUDY    62  54  74 E7        30.19R
OGALLALA       MOCLDY    65  50  57 E7        30.20S
$$

NEZ005>010-023>029-035>040-094-260500-
NORTH CENTRAL NEBRASKA

CITY           SKY/WX    TMP DP  RH WIND       PRES   REMARKS
VALENTINE      PTCLDY    54  46  74 CALM      30.22R
AINSWORTH      CLOUDY    58  52  81 NE3       30.22S
BROKEN BOW     CLEAR     58  52  80 NE6       30.20S
O`NEILL        CLEAR     59  51  75 CALM      30.21S
ORD            CLEAR     57  53  86 CALM      30.19R
THEDFORD       CLEAR     58  49  71 E7        30.23S
$$

NEZ041-046>049-061>064-073>077-083>087-260500-
SOUTH CENTRAL NEBRASKA

CITY           SKY/WX    TMP DP  RH WIND       PRES   REMARKS
GRAND ISLAND   CLOUDY    60  56  86 E5        30.19S
AURORA         CLOUDY    60  58  96 NE5       30.18S
HASTINGS       CLOUDY    61  56  83 NE5       30.19S
HEBRON         CLOUDY    64  60  86 CALM      30.17R
HOLDREGE       CLOUDY    62  56  80 E7        30.19S
KEARNEY *      CLOUDY    61  55  82 E6        30.18F
YORK           PTCLDY    57  57 100 NE5       30.18S
$$

NEZ011>018-030>034-042>045-260500-
NORTHEAST NEBRASKA

CITY           SKY/WX    TMP DP  RH WIND       PRES   REMARKS
NORFOLK        CLEAR     58  55  90 CALM      30.18S
ALBION         CLEAR     59  56  89 CALM      30.19S
BLAIR          PTCLDY    65  58  78 N6        30.16R
FREMONT        CLOUDY    62  58  88 CALM      30.17R
TEKAMAH        CLOUDY    60  57  89 NW6       30.15F
WAYNE          CLEAR     58  56  95 CALM      30.19R
$$

NEZ050>053-065>068-078-088>093-260500-
SOUTHEAST NEBRASKA

CITY           SKY/WX    TMP DP  RH WIND       PRES   REMARKS
LINCOLN        CLOUDY    64  60  87 N5        30.17R
OMAHA EPPLEY   PTCLDY    64  60  87 N7        30.14S
BEATRICE       PTCLDY    62  61  94 CALM      30.15R
FALLS CITY     PTCLDY    66  61  84 N5        30.12R
NEBRASKA CITY  MOCLDY    64  64 100 CALM      30.14S
PLATTSMOUTH    CLOUDY    65  62  89 N3        30.15R
$$

NEZ044-045-051>053-067-260500-
OMAHA AREA

CITY           SKY/WX    TMP DP  RH WIND       PRES   REMARKS
OMAHA EPPLEY   PTCLDY    64  60  87 N7        30.14S
BLAIR          PTCLDY    65  58  78 N6        30.16R
FREMONT        CLOUDY    62  58  88 CALM      30.17R
MILLARD        PTCLDY    68  61  77 CALM      30.14S
OFFUTT AFB     CLOUDY    63  62  96 N2        30.13F
PLATTSMOUTH    CLOUDY    65  62  89 N3        30.15R
WAHOO          FAIR      61  59  94 NW3       30.16R
$$




USA.gov is the U.S. government's official web portal to all federal, state and local government web resources and services.